Find Starlink 2227

NORAD ID: 48575 Int'l Des: 2021-041 Owner: SPXS Country: US Constellation: starlink operational
LEOCIRCULAR

Aktuelle Ansicht

3D-Globus wird geladen...

Über Starlink 2227

Beschreibung wird geladen...

Nächste Überflüge

Passes for default location (London). Set your location on the main map for personalized predictions.

Höhenverlauf

Loading altitude history...

Zweizeiliger Elementsatz

1 48575U 21041Y 26150.20366263 .00021246 00000-0 69372-3 0 9994
2 48575 53.1598 69.0722 0001260 80.8930 279.2214 15.31734130278311
Epoch: 30. Mai 2026 • Age: 26 hours

Aktueller Status

Höhe 470.9 km
Geschwindigkeit 7.63 km/s
Subsatellitenpunkt 23.33°N, 122.39°W
Startdatum 15. Mai 2021
Alter 5 years
Typ internet

Technische Details

Klassifizierung Payload
Masse 260.00 kg
Trockenmasse 248.00 kg
Gesamtmasse 260.00 kg
Länge 0.20 m
Durchmesser 2.80 m
Spannweite 9.00 m
Form Box + pan
Hersteller SPXS
Bus-Typ Starlink
Phasenstatus In Orbit
Besitzer/Staat SPXS/US

Most Searched